FW1786 Weather Reports


Display with metric or nautical units.
time (UTC)temp
F
wind
direction
speed
MPH
gust
MPH
rain 1hr
in
rain 24hr
in
rain mn
in
humidity
%
barometer
mb
20260509234522 78 248 0.0 2.0 0.00 0.04 0.00 42 1010.1
20260509233022 79 178 0.0 3.0 0.00 0.04 0.00 37 1010.2
20260509231526 80 169 0.0 3.0 0.00 0.04 0.00 37 1010.4
20260509230018 80 300 1.0 2.0 0.00 0.04 0.00 39 1010.4
20260509224520 80 14 0.0 2.0 0.00 0.04 0.00 40 1010.3
20260509223018 80 221 1.0 3.0 0.00 0.04 0.00 33 1010.2
20260509221514 81 296 1.0 3.0 0.00 0.04 0.00 38 1010.1
20260509220018 81 213 0.0 2.0 0.00 0.04 0.00 39 1010.2
20260509214523 80 327 1.0 4.0 0.00 0.04 0.00 43 1010.3
20260509213031 77 160 0.0 2.0 0.00 0.04 0.00 40 1010.4
20260509211524 80 88 1.0 3.0 0.00 0.04 0.00 38 1010.4
20260509210013 80 86 1.0 7.0 0.00 0.04 0.00 36 1010.6
20260509204514 81 242 1.0 4.0 0.00 0.04 0.00 32 1010.8
20260509203017 82 352 1.0 4.0 0.00 0.04 0.00 37 1010.8
20260509201517 81 96 0.0 5.0 0.00 0.04 0.00 32 1011.0
20260509200014 81 55 1.0 4.0 0.00 0.04 0.00 32 1011.1
20260509194518 81 35 1.0 4.0 0.00 0.04 0.00 36 1011.1
20260509193026 81 321 1.0 4.0 0.00 0.04 0.00 37 1011.3
20260509191532 80 176 1.0 3.0 0.00 0.04 0.00 34 1011.3
20260509190023 80 342 2.0 5.0 0.00 0.04 0.00 39 1011.4
20260509184532 80 183 1.0 4.0 0.00 0.04 0.00 37 1011.4
20260509183029 80 130 1.0 5.0 0.00 0.04 0.00 38 1011.4
20260509181523 80 93 0.0 4.0 0.00 0.04 0.00 45 1011.6
20260509180022 80 254 5.0 10.0 0.00 0.04 0.00 41 1011.4
20260509174524 79 345 1.0 5.0 0.00 0.04 0.00 37 1011.4
20260509173021 78 315 1.0 3.0 0.00 0.04 0.00 39 1011.6
20260509171515 77 14 0.0 3.0 0.00 0.04 0.00 46 1011.7
20260509170025 76 262 0.0 4.0 0.00 0.04 0.00 53 1011.8
20260509164525 76 217 1.0 5.0 0.00 0.04 0.00 58 1012.2
20260509163026 75 198 2.0 5.0 0.00 0.04 0.00 55 1012.2
20260509161523 74 158 1.0 4.0 0.00 0.04 0.00 62 1012.2
20260509160025 72 317 1.0 3.0 0.00 0.04 0.00 62 1012.2
20260509154524 71 304 0.0 5.0 0.00 0.04 0.00 69 1012.2
20260509153039 70 313 0.0 4.0 0.00 0.04 0.00 70 1012.1
20260509151523 68 5 0.0 6.0 0.00 0.04 0.00 74 1012.0
20260509150026 67 211 3.0 6.0 0.00 0.04 0.00 76 1012.0
20260509144530 65 166 1.0 4.0 0.00 0.04 0.00 81 1012.1
20260509143029 63 162 1.0 4.0 0.00 0.04 0.00 85 1012.0
20260509141524 62 205 0.0 4.0 0.00 0.04 0.00 85 1011.9
20260509140008 60 185 0.0 4.0 0.00 0.04 0.00 89 1012.0
20260509134508 57 188 0.0 2.0 0.00 0.04 0.00 93 1011.8
20260509133014 55 169 0.0 0.0 0.00 0.04 0.00 94 1011.7
20260509131511 54 169 0.0 1.0 0.00 0.04 0.00 94 1011.7
20260509130009 53 191 0.0 1.0 0.00 0.04 0.00 94 1011.6
20260509124503 52 195 0.0 1.0 0.00 0.04 0.00 94 1011.6
20260509123004 51 196 0.0 2.0 0.00 0.04 0.00 95 1011.5
20260509121510 50 184 0.0 1.0 0.00 0.04 0.00 94 1011.4
20260509120005 49 188 0.0 1.0 0.00 0.04 0.00 94 1011.3
20260509114505 49 190 0.0 0.0 0.00 0.04 0.00 94 1011.3
20260509113004 49 190 0.0 1.0 0.00 0.04 0.00 94 1011.0
20260509111508 49 190 0.0 1.0 0.00 0.04 0.00 94 1010.8
20260509110007 50 190 0.0 1.0 0.00 0.04 0.00 93 1010.6
20260509104510 51 190 0.0 2.0 0.00 0.04 0.00 93 1010.5
20260509103010 51 179 0.0 1.0 0.00 0.04 0.00 93 1010.3
20260509101519 51 179 0.0 1.0 0.00 0.04 0.00 93 1010.4
20260509100015 52 181 0.0 2.0 0.00 0.04 0.00 93 1010.6
20260509094511 52 166 0.0 1.0 0.00 0.04 0.00 93 1010.7
20260509093007 51 184 0.0 2.0 0.00 0.04 0.00 93 1010.9
20260509091514 52 176 0.0 1.0 0.00 0.04 0.00 92 1010.9
20260509090031 52 180 0.0 2.0 0.00 0.04 0.00 92 1011.0
20260509084520 52 187 0.0 1.0 0.00 0.04 0.00 91 1011.2
20260509083032 52 187 0.0 2.0 0.00 0.04 0.00 92 1011.3
20260509081512 53 149 0.0 1.0 0.00 0.04 0.00 91 1011.1
20260509080012 53 188 0.0 2.0 0.00 0.04 0.00 91 1011.1
20260509074520 53 182 0.0 3.0 0.00 0.04 0.00 90 1011.2
20260509073030 53 163 1.0 2.0 0.00 0.04 0.00 91 1011.0
20260509071530 53 177 0.0 1.0 0.00 0.04 0.00 90 1010.8
20260509070016 54 178 0.0 2.0 0.00 0.04 0.00 89 1011.0
20260509064518 54 187 0.0 2.0 0.00 0.04 0.00 89 1011.0
20260509063021 54 171 0.0 2.0 0.00 0.04 0.00 89 1011.0
20260509061528 54 220 0.0 2.0 0.00 0.04 0.00 89 1011.1
20260509060010 54 226 0.0 1.0 0.00 0.04 0.00 89 1011.3
20260509054517 55 236 0.0 1.0 0.00 0.04 0.00 87 1011.1
20260509053024 55 170 0.0 2.0 0.00 0.04 0.00 88 1011.2
20260509051519 55 205 0.0 1.0 0.00 0.04 0.00 87 1011.4
20260509050020 55 205 0.0 2.0 0.00 0.04 0.00 87 1011.4
20260509044519 57 231 0.0 2.0 0.00 0.04 0.04 84 1011.3
20260509043020 58 138 0.0 2.0 0.00 0.04 0.04 80 1011.2
20260509041524 59 136 0.0 2.0 0.00 0.04 0.04 79 1011.0
20260509040025 59 105 0.0 2.0 0.00 0.04 0.04 79 1010.5
20260509034518 59 142 0.0 2.0 0.00 0.04 0.04 77 1010.0
20260509033018 60 136 0.0 2.0 0.00 0.04 0.04 74 1009.5
20260509031520 61 124 1.0 3.0 0.00 0.04 0.04 71 1009.1
20260509030032 63 285 0.0 4.0 0.00 0.04 0.04 68 1008.9
20260509024519 63 179 1.0 9.0 0.01 0.04 0.04 68 1008.6
20260509023024 64 191 1.0 5.0 0.02 0.04 0.04 68 1008.7
20260509021533 62 269 2.0 10.0 0.03 0.04 0.04 71 1007.9
20260509020020 63 103 4.0 15.0 0.04 0.04 0.04 70 1006.8
20260509014518 62 178 2.0 10.0 0.03 0.03 0.03 75 1008.1
20260509013024 64 217 5.0 11.0 0.02 0.02 0.02 72 1009.3
20260509011519 65 177 2.0 10.0 0.01 0.01 0.01 73 1009.1
20260509010025 66 169 3.0 7.0 0.00 0.00 0.00 73 1009.7
20260509004526 67 193 0.0 3.0 0.00 0.00 0.00 71 1009.8
20260509003023 68 239 0.0 1.0 0.00 0.00 0.00 65 1009.0
20260509001520 69 246 0.0 1.0 0.00 0.00 0.00 64 1008.7
20260509000022 70 245 0.0 2.0 0.00 0.00 0.00 56 1008.6